Regional Weather Roundup
Issued by NWS

Home | Current Version | Previous Version | Text Only | Print | Product List | Glossary On
Versions: 1 2 3 4 5 6 7 8 9 10 11 12 13 14 15 16 17 18 19 20 21 22 23 24 25 26 27 28 29 30 31 32 33 34 35 36 37 38 39 40 41 42 43 44 45 46 47 48 49 50
000
ASUS45 KTFX 280804
RWRMT
MONTANA HOURLY WEATHER ROUNDUP
NATIONAL WEATHER SERVICE GREAT FALLS MT
104 AM MST SUN DEC 28 2014

NOTE: "FAIR" INDICATES FEW OR NO CLOUDS BELOW 12000 FEET WITH NO
SIGNIFICANT WEATHER AND/OR OBSTRUCTIONS TO VISIBILITY.

* THESE STATIONS ARE NOT UNDER NWS QUALITY CONTROL. THEY DO NOT
   REPORT WEATHER SUCH AS PRECIPITATION OR FOG.

MTZ001>007-043-280900-
WEST OF THE DIVIDE
CITY           SKY/WX    TMP DP  RH WIND       PRES   REMARKS
KALISPELL      CLOUDY    28  28 100 NW3       29.81F
MISSOULA       CLOUDY    30  27  89 S16       29.85F WCI  19
BUTTE          CLOUDY    19  16  88 NW5       29.81F WCI  12
MULLAN PASS    SNOW      25  19  78 SW6       29.72S VSB 1/2  WCI  18
* LINCOLN      N/A       24  22  92 W3         N/A
* LOOKOUT PASS N/A       25  24  96 S1         N/A
* POLSON       N/A       28  27  96 N/A        N/A
* RONAN APT    CLOUDY    30  30 100 N/A        N/A
* SEELEY LAKE  N/A       25  24  96 N/A        N/A
* THOMP F APT  CLOUDY    12   8  84 NE7G12     N/A   WCI   1
* YAAK HILL    N/A       31  28  89 N/A        N/A
$$

MTZ008-052>055-280900-
SOUTHWEST MONTANA
CITY           SKY/WX    TMP DP  RH WIND       PRES   REMARKS
BOZEMAN        CLOUDY    19  18  96 SW3       29.87S
DILLON         MOCLDY    19  12  74 SW12      29.86F WCI   6
* W YELLOWSTON CLOUDY    13   9  84 SW3G12     N/A
* THREE FORKS  PTCLDY    27  27 100 SW22G32    N/A   WCI  13
* BOULDER HILL N/A       20  14  77 SW16       N/A   WCI   6
* MONIDA PASS  N/A       10   8  92 SE23G28    N/A   WCI -10
* RAYNOLDS PAS N/A       13  -2  51 S20G29     N/A   WCI  -5
* WHITEHALL    N/A       25  15  66 SW10G19    N/A   WCI  15
* WISE RIVER   N/A       18  15  88 NE3G9      N/A
$$

MTZ009>010-012-014-046-048-049-054-280900-
EAST SLOPES AND CENTRAL MONTANA
CITY           SKY/WX    TMP DP  RH WIND       PRES   REMARKS
CUT BANK       LGT SNOW  25  23  92 N5        29.78S VSB 1 1/2 WCI  19
GREAT FALLS    CLOUDY    28  23  81 S13       29.76F WCI  17
HELENA         CLOUDY    21  18  88 SW3       29.82S
* DEARBORN     N/A       32  20  61 S13G20     N/A   WCI  22
* EAST GLACIER N/A       23  18  81 E3         N/A
* MONARCH      N/A       21  16  81 S11G18     N/A   WCI   9
* PENDROY      N/A       21  21 100 N6         N/A   WCI  13
* SWEET GRASS  N/A       25  25 100 N/A        N/A
$$

MTZ011-013-016-021-035-040-045-047-050-051-280900-
NORTH CENTRAL MONTANA
CITY           SKY/WX    TMP DP  RH WIND       PRES   REMARKS
HAVRE          CLOUDY    21  18  88 E9        29.86S WCI  11
LEWISTOWN      LGT SNOW  25  19  78 E3        29.80F VSB 1 1/2
* N BAR RANCH  CLOUDY    21  16  81 CALM      29.80F
* CHESTER      N/A       21  17  84 NE1        N/A
* DENTON       N/A       25  21  85 SW1        N/A
* JUDITH GAP   N/A       26  18  72 SW12       N/A   WCI  15
* LOMA         N/A       25  24  96 NE6        N/A   WCI  18
$$

MTZ017>020-022>027-061-062-280900-
NORTHEAST MONTANA
CITY           SKY/WX    TMP DP  RH WIND       PRES   REMARKS
GLASGOW        CLEAR     19  16  88 E10       29.92R WCI   8
GLENDIVE       CLOUDY    19  16  88 SE3       29.92F
JORDAN         PTCLDY    23  19  85 CALM      29.87F
SIDNEY         MOCLDY    19  18  96 N9        29.98S WCI   8
WOLF POINT     CLOUDY    19  14  81 E13       29.97S WCI   6
* BEAVER HILL  N/A       21  16  81 S9         N/A   WCI  11
* CIRCLE       N/A       23  20  88 N/A        N/A
* LINDSAY DVD  N/A       19  16  88 N/A        N/A
* NAVAJO       N/A       12  10  92 E6         N/A   WCI   2
* SACO         N/A       12   9  88 NE4        N/A
$$

MTZ028>042-056>058-280900-
SOUTHCENTRAL AND SOUTHEAST MONTANA
CITY           SKY/WX    TMP DP  RH WIND       PRES   REMARKS
BAKER          PTCLDY    19  12  74 SW10      29.91F WCI   8
BILLINGS       CLOUDY    25  10  53 SW15      29.86F WCI  13
LIVINGSTON     LGT SNOW  27  16  63 SW28G45   29.80F VSB 3    WCI  11
MILES CITY     CLOUDY    21  18  88 SE6       29.91F WCI  13
* LAUREL APT   CLOUDY    25   9  50 S13G23     N/A   WCI  13
* ROUNDUP APT  CLOUDY    25  12  58 S7         N/A   WCI  17
* ALZADA       N/A       15  10  80 E4         N/A
* HYSHAM       N/A       22   8  55 W4         N/A
* LAME DEER    N/A       21   6  52 S6         N/A   WCI  13
* REED POINT   N/A       19  13  77 N/A        N/A
* ROSCOE HILL  N/A       26   0  32 S26G42     N/A   WCI  10
$$

REGIONAL REPORTS...DAKOTAS
CITY           SKY/WX    TMP DP  RH WIND       PRES   REMARKS
WILLISTON      CLOUDY    18  12  77 NE8       30.00F WCI   8
DICKINSON      CLOUDY    19  14  81 CALM      29.92F
BEACH          CLOUDY    18  18 100 S3        29.92F
CROSBY         LGT SNOW  10   9  96 E9        30.04F WCI  -3
WATFORD CITY   CLOUDY    18  16  92 E8        29.97S WCI   8
BISMARCK       CLOUDY    16  14  92 NE3       30.04S
GRAND FORKS    CLOUDY     3   0  87 N12       30.15R WCI -14
FARGO          CLOUDY    16  10  77 N17       30.08R
BUFFALO SD     CLEAR     21  14  74 W8        29.86F WCI  11
RAPID CITY     CLEAR     12   3  67 NW8       29.96F
$$

REGIONAL REPORTS...WYOMING/IDAHO/WASHINGTON
CITY           SKY/WX    TMP DP  RH WIND       PRES   REMARKS
GILLETTE       PTCLDY    18   5  57 SW15      29.89F WCI   4
SHERIDAN       PTCLDY     3   0  87 SW6       29.87F WCI  -8
CODY           MOCLDY    28   7  41 SW14G30   29.85F WCI  17
YELLOWSTONE LA MOCLDY    10   9  96 CALM      29.91F
SALMON         CLOUDY    19  16  88 N3        29.97F
MULLAN PASS    SNOW      25  19  78 SW6       29.72S VSB 1/2  WCI  18
SAND POINT     FOG       32  32 100 CALM      29.86R
SPOKANE        MOCLDY    32  30  92 SW8       29.88R WCI  25
$$

REGIONAL REPORTS...ALBERTA
CITY           SKY/WX    TMP DP  RH WIND       PRES   REMARKS
CALGARY        FOG       16  14  92 N13       29.92R VSB 2    WCI   2

$$



USA.gov is the U.S. government's official web portal to all federal, state and local government web resources and services.